Retour au catalogue

JILIN-01-06

ActifScienceSSO
NORAD 43024·PAYLOAD·🇨🇳 China

Lancé Nov 21, 2017 depuis Taiyuan Satellite Launch Center

Loading…

Prochains Passages (prochaines 24 heures)

TLE

FraisSource: Space-Track

Époque: Sep 14, 2026, 13:55 UTC

1 43024U 17074C   26257.58049630  .00005599  00000-0  16945-3 0  9995
2 43024  97.4830   1.9166 0005217 284.7141  75.3523 15.34598693487547

Suivez JILIN-01-06 en temps réel avec AllMySat

Download on the App Store